Weather Roundup
Issued by NWS

Home | Current Version | Previous Version | Graphics & Text | Print | Product List | Glossary Off
Versions: 1 2 3 4 5 6 7 8 9 10 11 12 13 14 15 16 17 18 19 20 21 22 23 24 25 26 27 28 29 30 31 32 33 34 35 36 37 38 39 40 41 42 43 44 45 46 47 48 49 50

000
NZUS93 KARX 191310
HRRWXR

CURRENT HOURLY OBSERVATIONS ACROSS
MUCH OF THE UPPER MISSISSIPPI VALLEY
NATIONAL WEATHER SERVICE LA CROSSE WI
800 AM CDT TUE AUG 19 2014


...SOUTHEAST MINNESOTA...


CITY           SKY/WX    TMP DP  RH WIND       PRES   REMARKS
ROCHESTER      CLOUDY    66  63  90 NW9       29.74R FOG
ROCHESTER/MAYO PTSUNNY   65  63  93 NW6G16    29.72R
WINONA         CLOUDY    66  64  94 NW5       29.69R
AUSTIN         CLOUDY    64  63  94 NW8       29.73R
ALBERT LEA     CLOUDY    64  64 100 NW5       29.74S FOG
DODGE CENTER   CLOUDY    66  64  94 NW9       29.73R
PRESTON        CLOUDY    64  64 100 NW8       29.74R FOG
OWATONNA       CLOUDY    64  63  94 W9        29.74R FOG
FARIBAULT      MOSUNNY   68  63  83 NW6       29.73S HAZE
$$

...ELSEWHERE IN MINNESOTA...


CITY           SKY/WX    TMP DP  RH WIND       PRES   REMARKS
MINNEAPOLIS    PTSUNNY   68  64  87 NW6       29.72R
INTNL FALLS    CLOUDY    62  60  93 CALM      29.72R
DULUTH         FOG       62  59  90 NW7       29.70R VSB 1/2
RED WING       PTSUNNY   66  64  94 NW9       29.70R
REDWOOD FALLS  SUNNY     68  63  84 NW9       29.76R
MANKATO        CLOUDY    64  61  88 NW12      29.74R
WORTHINGTON    SUNNY     64   9  11 W8        29.80S
FAIRMONT       SUNNY     66  61  82 NW8       29.76S
$$

...SOUTHWEST WISCONSIN...


CITY           SKY/WX    TMP DP  RH WIND       PRES   REMARKS
LA CROSSE      PTSUNNY   69  65  86 N5        29.69R
PRAIRIE DU CHI SUNNY     69  65  85 W3        29.71R
BOSCOBEL       SUNNY     68  65  90 SW6       29.70R
LONE ROCK      SUNNY     72  66  81 CALM      29.70R
PLATTEVILLE    MOSUNNY   70  69  96 SW8       29.73R
FORT MC COY    CLOUDY    64  64  98 CALM      29.69R
CAMP DOUGLAS   CLOUDY    64  64 100 W5        29.68R
VIROQUA        PTSUNNY   66  66 100 W6        29.70R
WIS DELLS      MOSUNNY   66  64  94 W5        29.69R
$$

...ELSEWHERE IN WISCONSIN...


CITY           SKY/WX    TMP DP  RH WIND       PRES   REMARKS
MILWAUKEE      PTSUNNY   68  64  87 SW9       29.70F
MADISON        MOSUNNY   70  66  87 SW6       29.69R
GREEN BAY      CLOUDY    66  65  96 W7        29.66F
EAU CLAIRE     PTSUNNY   66  63  90 NW9       29.68R
BLACK RVR FLS  CLOUDY    65  65 100 CALM      29.68R FOG
MEDFORD        CLOUDY    63  63 100 CALM      29.68S FOG
WAUSAU         LGT RAIN  65  64  97 NW3       29.66S FOG
WIS RAPIDS     CLOUDY    64  63  96 NW5       29.68S
MARSHFIELD     CLOUDY    65  63  93 NW8       29.67R
RICE LAKE      CLOUDY    62  60  95 NW6       29.71S
$$

...NORTHEAST IOWA...


CITY           SKY/WX    TMP DP  RH WIND       PRES   REMARKS
WATERLOO       SUNNY     68  64  87 NW10      29.73R
DUBUQUE        PTSUNNY   70  69  97 W7        29.73R FOG
DECORAH        MOSUNNY   66  64  94 CALM      29.71R
MASON CITY     CLOUDY    65  64  97 NW13      29.76R FOG
CHARLES CITY   CLOUDY    64  64 100 W7        29.74R FOG
OELWEIN        SUNNY     66  66 100 NW10      29.74S
$$

...ELSEWHERE IN IOWA...


CITY           SKY/WX    TMP DP  RH WIND       PRES   REMARKS
DES MOINES     PTSUNNY   71  67  87 S7        29.79R
IOWA CITY      MOSUNNY   71  70  96 W7        29.76R FOG
FORT DODGE     SUNNY     66  63  88 W3        29.79S
MARSHALLTOWN   MOSUNNY   68  65  90 W5        29.76R
CEDAR RAPIDS   MOSUNNY   70  70 100 W8        29.75R FOG
$$

...NORTHERN ILLINOIS...


CITY           SKY/WX    TMP DP  RH WIND       PRES   REMARKS
CHICAGO-OHARE  PTSUNNY   73  67  81 S10       29.73F
DUPAGE         PTSUNNY   72  68  87 S12       29.74S
CHICAGO-MIDWAY LGT RAIN  76  70  82 S10       29.74F
MOLINE         MOSUNNY   74  69  85 W13       29.73R
ROCKFORD       CLOUDY    72  68  87 SW8       29.73S
STERLING       MOSUNNY   73  68  83 W8        29.75R
PEORIA         PTSUNNY   73  68  84 S9        29.78R HAZE
$$

NOTE: "FAIR" INDICATES FEW OR NO CLOUDS BELOW 12,000 FEET WITH NO
SIGNIFICANT WEATHER AND/OR OBSTRUCTIONS TO VISIBILITY. WIND
SPEEDS ARE IN MILES-PER-HOUR.



USA.gov is the U.S. government's official web portal to all federal, state and local government web resources and services.